This is the latest recevied weather packets stored in our database for station/object K5IDL. If no packets are shown the sender has not sent any weather packets the latest 10 day(s).
| Time | Temp. | Humidity | Pressure | Rain* | Wind** | Luminosity | Snow |
|---|---|---|---|---|---|---|---|
| 1777992262 | 25.56° C | 74% | 1005.6 hPa | 0 mm | - | 213 W/m² | - |
| 1777991958 | 25° C | 76% | 1005.8 hPa | 0 mm | - | 187 W/m² | - |
| 1777991656 | 24.44° C | 77% | 1005.6 hPa | 0 mm | - | 209 W/m² | - |
| 1777991353 | 24.44° C | 78% | 1005.5 hPa | 0 mm | - | 125 W/m² | - |
| 1777991050 | 24.44° C | 78% | 1005.5 hPa | 0 mm | - | 144 W/m² | - |
| 1777990747 | 23.89° C | 79% | 1005.7 hPa | 0 mm | - | 147 W/m² | - |
| 1777990445 | 23.89° C | 79% | 1005.8 hPa | 0 mm | - | 171 W/m² | - |
| 1777989838 | 23.89° C | 79% | 1005.7 hPa | 0 mm | - | 108 W/m² | - |
| 1777989535 | 23.33° C | 80% | 1005.7 hPa | 0 mm | - | 118 W/m² | - |
| 1777989231 | 23.33° C | 80% | 1006 hPa | 0 mm | - | 99 W/m² | - |
| 1777988927 | 23.33° C | 81% | 1005.5 hPa | 0 mm | - | 87 W/m² | - |
| 1777988624 | 23.33° C | 81% | 1005.4 hPa | 0 mm | - | 71 W/m² | - |
| 1777988321 | 23.33° C | 81% | 1005.4 hPa | 0 mm | - | 62 W/m² | - |
| 1777988018 | 23.33° C | 81% | 1005.1 hPa | 0 mm | - | 61 W/m² | - |
| 1777987713 | 23.33° C | 81% | 1005.3 hPa | 0 mm | - | 62 W/m² | - |
| 1777987411 | 23.33° C | 82% | 1005.6 hPa | 0 mm | - | 61 W/m² | - |
| 1777987108 | 22.78° C | 82% | 1005.6 hPa | 0 mm | - | 76 W/m² | - |
| 1777986805 | 22.78° C | 82% | 1005.6 hPa | 0 mm | - | 47 W/m² | - |
| 1777986503 | 22.78° C | 82% | 1005.8 hPa | 0 mm | - | 47 W/m² | - |
| 1777986201 | 22.78° C | 83% | 1005.8 hPa | 0 mm | - | 41 W/m² | - |
| 1777985898 | 22.78° C | 83% | 1005.3 hPa | 0 mm | - | 26 W/m² | - |
| 1777985595 | 22.78° C | 83% | 1005.3 hPa | 0 mm | - | 32 W/m² | - |
| 1777985291 | 22.78° C | 83% | 1005.3 hPa | 0 mm | - | 35 W/m² | - |
| 1777984988 | 22.78° C | 83% | 1005.4 hPa | 0 mm | - | 24 W/m² | - |
| 1777984684 | 22.78° C | 83% | 1005.4 hPa | 0 mm | - | 26 W/m² | - |
* Rain latest hour (hover to see other rain measurements)
** Current wind speed in m/s (hover to see current wind gust speed)